Simultaneous Nadir Overpasses (SNOs) Predictions

Prediction of SNOs between GOES-14 and AQUA Satellite Orbit:

Table of predicted SNOs for the next 14.0 days since TLE Epoch: 7/31/2021
Index Date Time (GOES-14) GOES-14 Lat,Lon AQUA Lat,Lon Distance(km) Time Diff (sec)
1 07/31/2021 08:35:45 -0.33,-104.14 -0.22,-104.77 71.30 80
2 08/02/2021 08:20:53 -0.32,-104.14 -0.80,-101.81 265.27 80
3 08/02/2021 20:42:19 0.35,-104.36 -0.22,-107.02 302.13 80
4 08/04/2021 20:32:48 0.35,-104.36 0.43,-104.07 34.31 80
5 08/06/2021 20:20:37 0.36,-104.37 1.08,-101.11 370.79 80
6 08/07/2021 08:41:51 -0.38,-104.16 0.03,-106.26 238.29 80
7 08/09/2021 08:26:59 -0.38,-104.16 -0.56,-103.30 97.96 80
8 08/09/2021 20:48:24 0.40,-104.35 -0.51,-108.50 472.13 80
9 08/11/2021 08:14:48 -0.37,-104.16 -1.16,-100.34 434.44 80
10 08/11/2021 20:36:13 0.40,-104.36 0.16,-105.55 135.17 80
11 08/13/2021 20:26:41 0.40,-104.36 0.76,-102.59 201.60 80
